Location: North Evanston
(42.0634°N, 87.6976°W)
Time: 05:43:55
(UTC+00:00)

Explorer 11/Cluster Stage 4 - Visible Passes

Search period start: 10 May 2026 00:00
Search period end: 20 May 2026 00:00
Orbit: 463 x 1174 km, 28.8° (Epoch: 9 May)

Date Brightness Start Highest point End Pass type
(mag) Time Alt. Az. Time Alt. Az. Time Alt. Az.
16 May 8.7 02:30:14 10° S 02:33:02 13° SSE 02:33:02 13° SSE visible
17 May 8.7 02:04:56 10° S 02:08:40 14° SSE 02:10:45 13° SE visible
17 May 8.9 03:50:22 10° SW 03:52:01 15° SSW 03:52:01 15° SSW visible
18 May 8.8 01:39:42 10° SSW 01:43:45 15° SSE 01:47:40 10° SE visible
18 May 8.4 03:25:12 10° SW 03:29:29 23° S 03:29:29 23° S visible
19 May 8.1 03:00:02 10° SW 03:05:58 25° S 03:06:45 25° SSE visible
19 May 9.2 04:47:32 10° WSW 04:47:58 11° WSW 04:47:58 11° WSW visible
